Location: Geroldsau
(48.7259°N, 8.2466°E)
Time: 15:39:14
(UTC+00:00)

Cosmos 2151 - Pass Details

Date: 20 June 2021
Orbit: 582 x 599 km, 82.5° (Epoch: 04 August)

Event Time Altitude Azimuth Distance (km) Brightness Sun altitude
Exits shadow 01:44:54 16° 197° (SSW) 1,534 4.5 -11.7°
Maximum altitude 01:48:10 73° 280° (W) 616 3.0 -11.4°
Drops below altitude 10° 01:52:23 10° 6° (N) 1,914 6.7 -11.0°
Sets 01:54:36 0° 9° (N) 2,818 7.7 -10.8°
